DELTA 1 DEB, 42661

Orbit data source: Space-Track

DELTA 1 DEB, 42661 is space debris in SSO originally from a launch on Thu, 12 Jun 1975 UTC launched from the Air Force Western Test Range (AFWTR). Debris objects in space refer to the collection of defunct objects orbiting the Earth. Examples of debris include non-operational satellites, rocket bodies, and fragments generated from explosions, collisions, or faulty payload assembly.

Loading next visibility...
Identifier
42661, 1975-052MW
Orbit
SSO
Country
Flag of USUS
Related business
Manufacturer
Unknown
Mission
Spacecraft
Bus & Motor
Unknown
Mass
Unknown
Launch date (UTC)
1975-06-12 (50 years ago)
Launch vehicle
Unknown
Launch site
Air Force Western Test Range (AFWTR)
Object type
Payload
Rocket body
Debris
Shape & HBR
Unknown shape, 0.1 m
Radar Cross Section
Small (<0.1 m²)

Expand to show TLE details & history
Last TLE update: 3 days ago

TLE from 3 days ago
0 DELTA 1 DEB
1 42661U 75052MW  25285.75496713  .00001525  00000-0  47076-3 0  9992
2 42661  98.7982 291.0732 0003321 327.5696  32.5288 14.42854026624258
Epoch: 2025-10-12T18:07Z
TLE epoch observation values (Epoch: 2025-10-12T18:07:09.160Z)
Latitude
-0.00002°
Longitude
-2.28252°
Altitude
750.031 km
Speed
7.481 km/s
True Right ascension
19h 24m 17s
True Declination
0° 00' 00"
Sunlit
Object was in daylight at epoch
Visualization orbit readout
Latitude
Unknown
Longitude
Unknown
Altitude
Unknown
Speed
Unknown
Apparent Right ascension
Unknown
Apparent Declination
Unknown
Sunlit
N/A
Visualization observer readout
Local Sidereal Time
04:37:33
Azimuth
Unknown
Elevation
Unknown
Doppler factor
Unknown
Orbital elements
Apogee altitude
748.583 km
Perigee altitude
743.851 km
Semi-major axis
7,124.354 km
Eccentricity
0.00033
Inclination
98.7982°
RAAN
291.0732°
Arg. of periapsis
327.5696°
True anomaly
32.54927°
Mean anomaly
32.5288°
Eccentric anomaly
32.53903°
Mean motion
3.60932 °/min
Orbital period
99.74 mins
BSTAR
0.00047076
Loading maneuver chart data...
Computing Atmospheric mass density...
Loading historical data...
Loading historical data...
Loading historical data...
Loading historical data...
Loading historical data...
Loading historical data...
Loading historical data...

Documentation

Showing up to 5 results
|